Prox-1
1 44339U 19036A   25035.51879144  .00019983  00000-0  28175-2 0  9991
2 44339  23.9963 160.8342 0008769  86.4458 273.7040 14.75692331299493
SONATE
1 44400U 19038Q   25035.50687026  .00072694  00000-0  98728-3 0  9997
2 44400  97.7107  49.5248 0009619   7.1090 353.0299 15.57328328309927
Taurus 1
1 44530U 19059C   25035.82955754  .00013480  00000-0  26534-2 0  9998
2 44530  98.5901 169.6998 0009424  60.3884 299.8254 14.62661123285686
Duchifat 3
1 44854U 19089C   25035.43283519  .00042897  00000-0  13013-2 0  9992
2 44854  36.9494  63.0780 0010517 231.2994 128.6819 15.33117934283713
TO-108
1 44881U 19093C   25035.86925598  .00001992  00000-0  23901-3 0  9993
2 44881  97.8051 114.1029 0012627 282.2138  77.7662 14.85091813277561
FloripaSat 1
1 44885U 19093G   25035.78622177  .00011505  00000-0  10302-2 0  9996
2 44885  97.8227 123.3276 0009916 261.7916  98.2180 14.95949238278073
RS-44
1 44909U 19096E   25035.23044796  .00000019  00000-0  36638-4 0  9991
2 44909  82.5241 310.5826 0216519 228.5215 129.7121 12.79738074238659
UPMSat 2
1 46276U 20061E   25035.86091237  .00048404  00000-0  80707-3 0  9990
2 46276  97.2642 107.5712 0000822  48.6487 311.4836 15.51841279246022
AmicalSat
1 46287U 20061R   25010.85863821  .11283921  24654-5  56408-3 0  9994
2 46287  97.2840  89.8720 0009935 281.1985  78.8199 16.41970930241877
SALSAT
1 46495U 20068K   25035.45132074  .00012606  00000-0  59391-3 0  9990
2 46495  97.8478   8.0826 0010578 228.7547 131.2775 15.19614647239502
CubeSX-Sirius-HSE
1 47951U 21022V   25035.90087281  .00077855  00000-0  13394-2 0  9997
2 47951  97.4348 302.8554 0010586  43.1141 317.0938 15.50774230214297
CubeSX-HSE
1 47952U 21022W   25035.81957614  .00085935  00000-0  14540-2 0  9996
2 47952  97.4346 302.9425 0010345  40.8393 319.3632 15.51215358214298
KSU-Cubesat
1 47954U 21022Y   25035.69039831  .00214160  00000-0  18773-2 0  9992
2 47954  97.4325 306.5859 0008328  51.5438 308.6569 15.68158552214239
GRBAlpha
1 47959U 21022AD  25035.78041696  .00084381  00000-0  14342-2 0  9997
2 47959  97.4340 303.0653 0010606  42.5489 317.6583 15.51090092213111
Orbicraft-Zorkiy
1 47960U 21022AE  25035.77993132  .00135074  00000-0  16071-2 0  9996
2 47960  97.4334 305.9800 0008984  44.3552 315.8423 15.60631586213963
TUBIN
1 48900U 21059X   25035.79370942  .00045200  00000-0  89399-3 0  9996
2 48900  97.6653 196.2600 0005239 338.4190  21.6838 15.46964015200663
LEDSAT
1 49069U 21073D   25035.66277372  .00054079  00000-0  12026-2 0  9994
2 49069  97.4054 113.5931 0013110 172.5264 187.6182 15.43393137192065
CUTE
1 49263U 21088D   25035.14907431  .00051520  00000-0  12702-2 0  9994
2 49263  97.4664 108.2432 0008928 343.3332  16.7619 15.40347886185077
TeikyoSat 4
1 49396U 21102B   25035.54077443  .00004419  00000-0  30121-3 0  9994
2 49396  97.4287  78.4273 0012291 196.4720 163.6110 15.06688395177717
Z-Sat
1 49399U 21102E   25035.87057561  .00007895  00000-0  45388-3 0  9994
2 49399  97.4003  81.1391 0018906 171.7971 188.3573 15.12593017178116
KOSEN 1
1 49402U 21102H   25035.70943012  .00011486  00000-0  57389-3 0  9991
2 49402  97.3916  83.5354 0017495 150.7604 209.4612 15.17489165178336
HO-113
1 50466U 21131B   25035.88702949  .00001277  00000-0  41515-3 0  9997
2 50466  98.5148 125.8774 0004883 141.1706 218.9834 14.40510784163497
IRIS-A
1 51044U 22002BN  25035.50956160  .00078333  00000-0  11136-2 0  9995
2 51044  97.3478 110.1917 0003754 277.7915  82.2914 15.56116317170214
Foresail-1
1 52766U 22057AL  25035.79484509  .00080060  00000-0  11485-2 0  9998
2 52766  97.5976 176.6611 0006025   5.9144 354.2180 15.55850654150299
SNUGLITE 2
1 52899U 22065F   25035.80385323  .00003018  00000-0  60331-3 0  9993
2 52899  98.1463 179.1917 0008243 139.3830 220.7988 14.62566094138242
IO-117
1 53106U 22080B   25034.56446200 -.00000003  00000-0  00000-0 0  9992
2 53106  70.1417 112.1355 0008120  52.7419 307.3980  6.42557586 60132
FO-118
1 54684U 22167C   25035.78251455  .00315329  00000-0  18347-2 0  9995
2 54684  97.6098 198.2594 0006476 334.1168  25.9773 15.77576746120242
SO-120
1 56992U 23084BU  25035.80871563  .01099654  59077-3  24699-2 0  9998
2 56992  97.5221 170.7378 0011600 294.8618  65.1452 15.97712470 92151
UmKA 1 (RS40S)
1 57172U 23091G   25035.84754154  .00009360  00000-0  53323-3 0  9997
2 57172  97.5785  91.9540 0016145  48.4019 311.8592 15.12917798 88607
CubeBel-2 (EU11S)
1 57175U 23091K   25035.88717293  .00013758  00000-0  72559-3 0  9995
2 57175  97.5790  92.5038 0014319  58.0044 302.2577 15.15592741 88642
VERONIKA
1 58261U 23174F   25035.77764284  .00067659  00000-0  15133-2 0  9997
2 58261  97.4302 117.2454 0007561 136.6512 223.5332 15.43220083 69289
KAFASAT
1 58317U 23174BP  25035.58801649  .00178856  00000-0  21410-2 0  9992
2 58317  97.4193 120.0462 0003114 101.4875 258.6731 15.60364240 69478
ENSO
1 58470U 23185J   25035.83906740  .00045407  00000-0  11034-2 0  9996
2 58470  97.3924 108.2901 0008964 167.6089 192.5380 15.40817191 65731
EIRSAT-1
1 58472U 23185L   25035.81823887  .00056753  00000-0  12173-2 0  9997
2 58472  97.3917 108.8878 0008001 168.6945 191.4484 15.44510171 65777
SONATE-2
1 59112U 24043Q   25035.35178945  .00025184  00000-0  88342-3 0  9996
2 59112  97.4961 164.7285 0011804 196.8224 163.2626 15.29358314 51154
MO-122
1 60209U 24125G   25035.52066233  .00025767  00000-0  89267-3 0  9995
2 60209  97.2951 248.9457 0020304 223.4279 136.5363 15.29624310 32790
GRBBeta
1 60237U 24128C   25035.49368646  .00007344  00000-0  58304-3 0  9997
2 60237  61.9926 155.1093 0038917  28.1389 332.1793 15.00714834 31416
Curium One
1 60242U 24128H   25035.48865081  .00011940  00000-0  90798-3 0  9997
2 60242  61.9829 154.8499 0039137  22.3296 337.9487 15.01905895 31422
ROBUSTA-3A
1 60243U 24128J   25035.72394847  .00012985  00000-0  99675-3 0  9995
2 60243  61.9893 154.4838 0037252  20.2006 340.0548 15.01547943 31451
CatSat
1 60246U 24125J   25035.14319969  .00015768  00000-0  58509-3 0  9996
2 60246  97.2740 248.9800 0045728 178.3913 181.7482 15.26667970 30821
AO-123
1 61781U 24199AY  25035.81960907  .00013366  00000-0  52879-3 0  9996
2 61781  97.3748 265.2106 0015261 281.7805  78.1721 15.25474166 57842
POEM 4 (BGS ARPIT)
1 62461U 24253C   25035.77016907  .00133256  00000-0  71033-3 0  9994
2 62461  55.2204  83.7032 0011566  24.4091 335.7504 15.79498705  5671
